| time (UTC) | temp F | wind direction | speed MPH | gust MPH | rain 1hr in | rain 24hr in | rain mn in | humidity % | barometer mb |
| 20260903062540 | 80 | 159 | 10.0 | 15.0 | 0.00 | 1.20 | 0.00 | 92 | 1012.2 |
| 20260903062050 | 80 | 180 | 7.0 | 12.0 | 0.00 | 1.20 | 0.00 | 93 | 1012.2 |
| 20260903061543 | 80 | 165 | 7.0 | 14.0 | 0.00 | 1.20 | 0.00 | 93 | 1012.2 |
| 20260903061038 | 80 | 155 | 9.0 | 14.0 | 0.00 | 1.20 | 0.00 | 93 | 1012.2 |
| 20260903060550 | 79 | 149 | 8.0 | 14.0 | 0.00 | 1.20 | 0.00 | 93 | 1012.2 |
| 20260903060043 | 79 | 157 | 9.0 | 12.0 | 0.00 | 1.20 | 0.00 | 93 | 1012.2 |
| 20260903055554 | 79 | 160 | 8.0 | 13.0 | 0.00 | 1.20 | 0.00 | 93 | 1012.2 |
| 20260903055039 | 78 | 161 | 10.0 | 13.0 | 0.00 | 1.20 | 0.00 | 93 | 1012.2 |
| 20260903054535 | 78 | 148 | 7.0 | 13.0 | 0.00 | 1.20 | 0.00 | 93 | 1012.2 |
| 20260903054046 | 78 | 149 | 9.0 | 13.0 | 0.00 | 1.20 | 0.00 | 93 | 1012.2 |
| 20260903053536 | 78 | 141 | 8.0 | 11.0 | 0.00 | 1.20 | 0.00 | 92 | 1012.3 |
| 20260903053055 | 78 | 154 | 7.0 | 12.0 | 0.00 | 1.20 | 0.00 | 92 | 1012.3 |
| 20260903052543 | 78 | 146 | 8.0 | 12.0 | 0.00 | 1.20 | 0.00 | 92 | 1012.3 |
| 20260903052052 | 78 | 126 | 8.0 | 12.0 | 0.00 | 1.20 | 0.00 | 92 | 1012.3 |
| 20260903051551 | 78 | 150 | 8.0 | 12.0 | 0.00 | 1.20 | 0.00 | 92 | 1012.3 |
| 20260903051102 | 78 | 159 | 9.0 | 12.0 | 0.00 | 1.20 | 0.00 | 92 | 1012.2 |
| 20260903050544 | 78 | 154 | 9.0 | 16.0 | 0.00 | 1.20 | 0.00 | 91 | 1012.2 |
| 20260903050104 | 78 | 153 | 11.0 | 16.0 | 0.00 | 1.20 | 0.00 | 91 | 1012.2 |
| 20260903045610 | 78 | 153 | 12.0 | 16.0 | 0.00 | 1.20 | 1.20 | 91 | 1012.3 |
| 20260903045109 | 78 | 133 | 11.0 | 16.0 | 0.00 | 1.20 | 1.20 | 91 | 1012.4 |
| 20260903044541 | 78 | 173 | 12.0 | 15.0 | 0.00 | 1.20 | 1.20 | 91 | 1012.4 |
| 20260903044053 | 78 | 137 | 10.0 | 15.0 | 0.00 | 1.20 | 1.20 | 91 | 1012.4 |
| 20260903043115 | 78 | 147 | 9.0 | 14.0 | 0.01 | 1.20 | 1.20 | 91 | 1012.7 |
| 20260903042558 | 78 | 164 | 10.0 | 16.0 | 0.01 | 1.20 | 1.20 | 91 | 1012.8 |
| 20260903041632 | 78 | 144 | 9.0 | 12.0 | 0.01 | 1.20 | 1.20 | 90 | 1012.8 |
| 20260903041137 | 78 | 153 | 9.0 | 11.0 | 0.01 | 1.20 | 1.20 | 90 | 1012.8 |
| 20260903040629 | 78 | 178 | 8.0 | 10.0 | 0.01 | 1.20 | 1.20 | 89 | 1012.9 |
| 20260903040054 | 78 | 155 | 6.0 | 15.0 | 0.02 | 1.20 | 1.20 | 89 | 1013.0 |
| 20260903035559 | 78 | 176 | 8.0 | 15.0 | 0.02 | 1.20 | 1.20 | 89 | 1013.0 |
| 20260903035151 | 79 | 169 | 7.0 | 12.0 | 0.02 | 1.20 | 1.20 | 88 | 1013.0 |
| 20260903034558 | 79 | 180 | 8.0 | 13.0 | 0.02 | 1.20 | 1.20 | 90 | 1013.2 |
| 20260903034103 | 79 | 190 | 8.0 | 11.0 | 0.02 | 1.20 | 1.20 | 91 | 1013.4 |
| 20260903033127 | 79 | 167 | 8.0 | 11.0 | 0.02 | 1.20 | 1.20 | 93 | 1013.2 |
| 20260903032541 | 79 | 188 | 8.0 | 11.0 | 0.01 | 1.19 | 1.19 | 93 | 1013.2 |
| 20260903032132 | 79 | 185 | 6.0 | 11.0 | 0.01 | 1.19 | 1.19 | 92 | 1013.2 |
| 20260903031551 | 79 | 171 | 7.0 | 11.0 | 0.01 | 1.19 | 1.19 | 92 | 1013.1 |
| 20260903031102 | 79 | 157 | 7.0 | 11.0 | 0.01 | 1.19 | 1.19 | 92 | 1013.3 |
| 20260903030042 | 79 | 139 | 5.0 | 10.0 | 0.01 | 1.19 | 1.19 | 91 | 1013.4 |
| 20260903025552 | 79 | 137 | 6.0 | 10.0 | 0.01 | 1.19 | 1.19 | 91 | 1013.3 |
| 20260903024614 | 80 | 142 | 5.0 | 8.0 | 0.02 | 1.18 | 1.18 | 90 | 1013.0 |
| 20260903024106 | 80 | 134 | 4.0 | 9.0 | 0.15 | 1.18 | 1.18 | 89 | 1012.8 |
| 20260903023125 | 80 | 90 | 3.0 | 5.0 | 0.65 | 1.18 | 1.18 | 87 | 1013.0 |
| 20260903022627 | 81 | 223 | 0.0 | 3.0 | 0.87 | 1.18 | 1.18 | 86 | 1012.8 |
| 20260903022122 | 81 | 224 | 0.0 | 1.0 | 1.14 | 1.18 | 1.18 | 86 | 1012.7 |
| 20260903021549 | 81 | 223 | 0.0 | 1.0 | 1.18 | 1.18 | 1.18 | 85 | 1012.7 |
| 20260903021054 | 81 | 223 | 0.0 | 4.0 | 1.18 | 1.18 | 1.18 | 85 | 1012.5 |
| 20260903020123 | 80 | 223 | 2.0 | 9.0 | 1.18 | 1.18 | 1.18 | 88 | 1012.4 |
| 20260903015605 | 80 | 209 | 4.0 | 12.0 | 1.18 | 1.18 | 1.18 | 88 | 1012.1 |
| 20260903014627 | 80 | 113 | 5.0 | 12.0 | 1.18 | 1.18 | 1.18 | 87 | 1011.8 |
| 20260903014043 | 80 | 91 | 8.0 | 12.0 | 1.09 | 1.09 | 1.09 | 86 | 1012.0 |
| 20260903013100 | 83 | 135 | 2.0 | 10.0 | 0.76 | 0.76 | 0.76 | 79 | 1011.9 |
| 20260903012547 | 85 | 318 | 0.0 | 12.0 | 0.53 | 0.53 | 0.53 | 75 | 1011.7 |
| 20260903011608 | 88 | 337 | 0.0 | 9.0 | 0.04 | 0.04 | 0.04 | 68 | 1011.1 |
| 20260903011120 | 88 | 77 | 3.0 | 11.0 | 0.00 | 0.00 | 0.00 | 67 | 1010.7 |
| 20260903010122 | 89 | 71 | 10.0 | 17.0 | 0.00 | 0.00 | 0.00 | 65 | 1010.4 |
| 20260903005634 | 90 | 66 | 11.0 | 17.0 | 0.00 | 0.00 | 0.00 | 62 | 1010.1 |
| 20260903005113 | 93 | 67 | 7.0 | 14.0 | 0.00 | 0.00 | 0.00 | 57 | 1010.0 |
| 20260903004545 | 95 | 78 | 7.0 | 12.0 | 0.00 | 0.00 | 0.00 | 55 | 1009.9 |
| 20260903004049 | 95 | 188 | 1.0 | 7.0 | 0.00 | 0.00 | 0.00 | 53 | 1009.8 |
| 20260903003119 | 95 | 191 | 4.0 | 9.0 | 0.00 | 0.00 | 0.00 | 53 | 1009.6 |
| 20260903002624 | 96 | 198 | 5.0 | 10.0 | 0.00 | 0.00 | 0.00 | 53 | 1009.7 |
| 20260903001624 | 96 | 194 | 8.0 | 9.0 | 0.00 | 0.00 | 0.00 | 52 | 1009.6 |
| 20260903001036 | 96 | 150 | 6.0 | 9.0 | 0.00 | 0.00 | 0.00 | 51 | 1009.5 |
| 20260903000058 | 97 | 160 | 4.0 | 8.0 | 0.00 | 0.00 | 0.00 | 48 | 1009.5 |
| 20260902235613 | 97 | 200 | 2.0 | 5.0 | 0.00 | 0.00 | 0.00 | 48 | 1009.6 |
| 20260902235108 | 97 | 200 | 3.0 | 5.0 | 0.00 | 0.00 | 0.00 | 48 | 1009.6 |
| 20260902234540 | 98 | 211 | 2.0 | 4.0 | 0.00 | 0.00 | 0.00 | 47 | 1009.7 |
| 20260902234051 | 98 | 213 | 2.0 | 5.0 | 0.00 | 0.00 | 0.00 | 47 | 1009.7 |
| 20260902233113 | 98 | 217 | 1.0 | 5.0 | 0.00 | 0.00 | 0.00 | 48 | 1009.6 |
| 20260902232556 | 98 | 121 | 1.0 | 10.0 | 0.00 | 0.00 | 0.00 | 48 | 1009.6 |
| 20260902231621 | 98 | 200 | 2.0 | 8.0 | 0.00 | 0.00 | 0.00 | 47 | 1009.7 |
| 20260902231044 | 98 | 167 | 2.0 | 5.0 | 0.00 | 0.00 | 0.00 | 48 | 1009.7 |
| 20260902230114 | 98 | 115 | 3.0 | 6.0 | 0.00 | 0.00 | 0.00 | 48 | 1009.7 |
| 20260902225604 | 98 | 124 | 1.0 | 6.0 | 0.00 | 0.00 | 0.00 | 49 | 1009.8 |
| 20260902224625 | 98 | 96 | 2.0 | 6.0 | 0.00 | 0.00 | 0.00 | 49 | 1009.7 |
| 20260902224137 | 97 | 61 | 2.0 | 6.0 | 0.00 | 0.00 | 0.00 | 48 | 1009.7 |
| 20260902223118 | 97 | 347 | 2.0 | 5.0 | 0.00 | 0.00 | 0.00 | 48 | 1009.8 |
| 20260902222630 | 98 | 333 | 2.0 | 7.0 | 0.00 | 0.00 | 0.00 | 48 | 1009.8 |
| 20260902222132 | 98 | 333 | 3.0 | 8.0 | 0.00 | 0.00 | 0.00 | 48 | 1009.8 |
| 20260902221558 | 98 | 207 | 5.0 | 11.0 | 0.00 | 0.00 | 0.00 | 47 | 1009.6 |
| 20260902221103 | 98 | 224 | 4.0 | 13.0 | 0.00 | 0.00 | 0.00 | 47 | 1009.6 |
| 20260902220135 | 98 | 189 | 6.0 | 10.0 | 0.00 | 0.00 | 0.00 | 47 | 1009.6 |
| 20260902215538 | 98 | 202 | 7.0 | 10.0 | 0.00 | 0.00 | 0.00 | 47 | 1009.8 |
| 20260902214557 | 99 | 248 | 7.0 | 11.0 | 0.00 | 0.00 | 0.00 | 47 | 1009.8 |
| 20260902214047 | 99 | 202 | 5.0 | 10.0 | 0.00 | 0.00 | 0.00 | 47 | 1009.8 |
| 20260902213109 | 99 | 229 | 7.0 | 15.0 | 0.00 | 0.00 | 0.00 | 47 | 1009.9 |
| 20260902212620 | 99 | 211 | 8.0 | 15.0 | 0.00 | 0.00 | 0.00 | 47 | 1009.9 |
| 20260902212124 | 99 | 208 | 9.0 | 15.0 | 0.00 | 0.00 | 0.00 | 47 | 1010.0 |
| 20260902211555 | 98 | 201 | 7.0 | 11.0 | 0.00 | 0.00 | 0.00 | 48 | 1010.1 |
| 20260902211107 | 98 | 239 | 7.0 | 13.0 | 0.00 | 0.00 | 0.00 | 49 | 1010.1 |
| 20260902210107 | 98 | 177 | 4.0 | 10.0 | 0.00 | 0.00 | 0.00 | 48 | 1010.2 |
| 20260902205549 | 99 | 209 | 4.0 | 8.0 | 0.00 | 0.00 | 0.00 | 48 | 1010.2 |
| 20260902204612 | 98 | 198 | 6.0 | 10.0 | 0.00 | 0.00 | 0.00 | 49 | 1010.4 |
| 20260902204055 | 98 | 242 | 5.0 | 9.0 | 0.00 | 0.00 | 0.00 | 48 | 1010.5 |
| 20260902203057 | 97 | 263 | 3.0 | 9.0 | 0.00 | 0.00 | 0.00 | 50 | 1010.5 |
| 20260902202612 | 97 | 209 | 6.0 | 9.0 | 0.00 | 0.00 | 0.00 | 50 | 1010.6 |
| 20260902201634 | 97 | 229 | 4.0 | 10.0 | 0.00 | 0.00 | 0.00 | 50 | 1010.7 |
| 20260902201045 | 97 | 275 | 5.0 | 11.0 | 0.00 | 0.00 | 0.00 | 51 | 1010.7 |
| 20260902200108 | 97 | 226 | 3.0 | 9.0 | 0.00 | 0.00 | 0.00 | 51 | 1010.9 |
| 20260902195612 | 97 | 220 | 6.0 | 8.0 | 0.00 | 0.00 | 0.00 | 51 | 1011.0 |
| 20260902194621 | 97 | 207 | 5.0 | 13.0 | 0.00 | 0.00 | 0.00 | 50 | 1011.2 |
| 20260902194104 | 97 | 277 | 8.0 | 13.0 | 0.00 | 0.00 | 0.00 | 49 | 1011.3 |
| 20260902193616 | 97 | 296 | 5.0 | 13.0 | 0.00 | 0.00 | 0.00 | 50 | 1011.3 |
| 20260902193047 | 97 | 232 | 6.0 | 13.0 | 0.00 | 0.00 | 0.00 | 51 | 1011.5 |
| 20260902192649 | 97 | 236 | 6.0 | 15.0 | 0.00 | 0.00 | 0.00 | 51 | 1011.5 |
| 20260902191630 | 97 | 225 | 7.0 | 15.0 | 0.00 | 0.00 | 0.00 | 53 | 1011.7 |
| 20260902191041 | 96 | 243 | 5.0 | 12.0 | 0.00 | 0.00 | 0.00 | 53 | 1011.8 |
| 20260902190104 | 96 | 259 | 6.0 | 11.0 | 0.00 | 0.00 | 0.00 | 53 | 1011.9 |
| 20260902185547 | 96 | 275 | 6.0 | 13.0 | 0.00 | 0.00 | 0.00 | 54 | 1012.0 |
| 20260902184620 | 95 | 273 | 7.0 | 14.0 | 0.00 | 0.00 | 0.00 | 54 | 1012.2 |
| 20260902184124 | 95 | 276 | 8.0 | 14.0 | 0.00 | 0.00 | 0.00 | 54 | 1012.4 |
| 20260902183633 | 95 | 267 | 5.0 | 11.0 | 0.00 | 0.00 | 0.00 | 55 | 1012.4 |
| 20260902183100 | 95 | 240 | 6.0 | 15.0 | 0.00 | 0.00 | 0.00 | 55 | 1012.5 |
| 20260902182605 | 95 | 239 | 10.0 | 15.0 | 0.00 | 0.00 | 0.00 | 54 | 1012.6 |
| 20260902181626 | 94 | 232 | 1.0 | 9.0 | 0.00 | 0.00 | 0.00 | 58 | 1012.7 |
| 20260902181036 | 94 | 329 | 4.0 | 13.0 | 0.00 | 0.00 | 0.00 | 58 | 1012.8 |
| 20260902180648 | 94 | 289 | 7.0 | 13.0 | 0.00 | 0.00 | 0.00 | 55 | 1012.9 |
| 20260902180051 | 94 | 251 | 5.0 | 12.0 | 0.00 | 0.00 | 0.00 | 58 | 1013.1 |
| 20260902175603 | 94 | 273 | 5.0 | 12.0 | 0.00 | 0.00 | 0.00 | 60 | 1013.1 |
| 20260902175153 | 94 | 249 | 5.0 | 10.0 | 0.00 | 0.00 | 0.00 | 58 | 1013.3 |
| 20260902174555 | 94 | 240 | 3.0 | 12.0 | 0.00 | 0.00 | 0.00 | 60 | 1013.4 |
| 20260902174106 | 93 | 281 | 4.0 | 13.0 | 0.00 | 0.00 | 0.00 | 59 | 1013.5 |
| 20260902173606 | 93 | 274 | 8.0 | 13.0 | 0.00 | 0.00 | 0.00 | 59 | 1013.5 |
| 20260902173037 | 93 | 219 | 6.0 | 13.0 | 0.00 | 0.00 | 0.00 | 59 | 1013.7 |
| 20260902172550 | 93 | 195 | 8.0 | 13.0 | 0.00 | 0.00 | 0.00 | 60 | 1013.8 |
| 20260902172157 | 92 | 216 | 3.0 | 14.0 | 0.00 | 0.00 | 0.00 | 62 | 1013.8 |
| 20260902171603 | 92 | 281 | 6.0 | 15.0 | 0.00 | 0.00 | 0.00 | 62 | 1013.9 |
| 20260902171112 | 92 | 221 | 9.0 | 16.0 | 0.00 | 0.00 | 0.00 | 62 | 1014.0 |
| 20260902170554 | 92 | 264 | 11.0 | 16.0 | 0.00 | 0.00 | 0.00 | 61 | 1014.1 |
| 20260902170040 | 92 | 251 | 7.0 | 14.0 | 0.00 | 0.00 | 0.00 | 62 | 1014.1 |
| 20260902165546 | 92 | 270 | 9.0 | 14.0 | 0.00 | 0.00 | 0.00 | 62 | 1014.2 |
| 20260902165147 | 92 | 246 | 8.0 | 13.0 | 0.00 | 0.00 | 0.00 | 63 | 1014.2 |
| 20260902164558 | 91 | 223 | 9.0 | 16.0 | 0.00 | 0.00 | 0.00 | 64 | 1014.3 |
| 20260902164110 | 91 | 276 | 7.0 | 16.0 | 0.00 | 0.00 | 0.00 | 64 | 1014.2 |
| 20260902163611 | 91 | 225 | 7.0 | 14.0 | 0.00 | 0.00 | 0.00 | 63 | 1014.4 |
| 20260902163042 | 91 | 244 | 6.0 | 12.0 | 0.00 | 0.00 | 0.00 | 66 | 1014.4 |
| 20260902162554 | 90 | 263 | 7.0 | 13.0 | 0.00 | 0.00 | 0.00 | 66 | 1014.5 |
| 20260902161615 | 90 | 269 | 10.0 | 15.0 | 0.00 | 0.00 | 0.00 | 66 | 1014.5 |
| 20260902161121 | 89 | 275 | 9.0 | 12.0 | 0.00 | 0.00 | 0.00 | 68 | 1014.5 |
| 20260902160632 | 89 | 297 | 9.0 | 15.0 | 0.00 | 0.00 | 0.00 | 68 | 1014.6 |
| 20260902160043 | 89 | 286 | 9.0 | 15.0 | 0.00 | 0.00 | 0.00 | 68 | 1014.6 |
| 20260902155544 | 89 | 254 | 9.0 | 15.0 | 0.00 | 0.00 | 0.00 | 68 | 1014.5 |
| 20260902154612 | 88 | 260 | 9.0 | 14.0 | 0.00 | 0.00 | 0.00 | 70 | 1014.5 |
| 20260902154114 | 87 | 265 | 8.0 | 13.0 | 0.00 | 0.00 | 0.00 | 73 | 1014.6 |
| 20260902153626 | 87 | 240 | 8.0 | 13.0 | 0.00 | 0.00 | 0.00 | 74 | 1014.5 |
| 20260902153046 | 86 | 256 | 7.0 | 14.0 | 0.00 | 0.00 | 0.00 | 75 | 1014.6 |
| 20260902152558 | 86 | 260 | 8.0 | 14.0 | 0.00 | 0.00 | 0.00 | 76 | 1014.5 |
| 20260902151619 | 85 | 248 | 7.0 | 12.0 | 0.00 | 0.00 | 0.00 | 77 | 1014.6 |
| 20260902151130 | 85 | 275 | 7.0 | 12.0 | 0.00 | 0.00 | 0.00 | 79 | 1014.6 |
| 20260902150634 | 85 | 250 | 6.0 | 12.0 | 0.00 | 0.00 | 0.00 | 81 | 1014.6 |
| 20260902145652 | 84 | 261 | 5.0 | 9.0 | 0.00 | 0.00 | 0.00 | 83 | 1014.5 |
| 20260902145136 | 83 | 290 | 3.0 | 9.0 | 0.00 | 0.00 | 0.00 | 84 | 1014.5 |
| 20260902144604 | 83 | 263 | 3.0 | 8.0 | 0.00 | 0.00 | 0.00 | 85 | 1014.5 |
| 20260902144116 | 82 | 297 | 4.0 | 8.0 | 0.00 | 0.00 | 0.00 | 85 | 1014.5 |
| 20260902143622 | 82 | 280 | 5.0 | 8.0 | 0.00 | 0.00 | 0.00 | 85 | 1014.6 |
| 20260902143049 | 82 | 279 | 4.0 | 8.0 | 0.00 | 0.00 | 0.00 | 86 | 1014.5 |
| 20260902142558 | 82 | 302 | 4.0 | 12.0 | 0.00 | 0.00 | 0.00 | 86 | 1014.6 |
| 20260902141600 | 82 | 286 | 5.0 | 9.0 | 0.00 | 0.00 | 0.00 | 86 | 1014.6 |
| 20260902141112 | 81 | 264 | 5.0 | 10.0 | 0.00 | 0.00 | 0.00 | 86 | 1014.7 |
| 20260902140136 | 81 | 281 | 6.0 | 10.0 | 0.00 | 0.00 | 0.00 | 86 | 1014.7 |
| 20260902135627 | 81 | 250 | 6.0 | 9.0 | 0.00 | 0.00 | 0.00 | 86 | 1014.7 |
| 20260902135109 | 81 | 281 | 6.0 | 12.0 | 0.00 | 0.00 | 0.00 | 87 | 1014.6 |
| 20260902134537 | 81 | 266 | 5.0 | 12.0 | 0.00 | 0.00 | 0.00 | 87 | 1014.6 |
| 20260902134150 | 80 | 242 | 5.0 | 9.0 | 0.00 | 0.00 | 0.00 | 87 | 1014.6 |
| 20260902133632 | 80 | 270 | 4.0 | 8.0 | 0.00 | 0.00 | 0.00 | 87 | 1014.6 |
| 20260902133103 | 80 | 271 | 4.0 | 8.0 | 0.00 | 0.00 | 0.00 | 87 | 1014.5 |
| 20260902132554 | 80 | 265 | 3.0 | 8.0 | 0.00 | 0.00 | 0.00 | 87 | 1014.5 |
| 20260902132135 | 80 | 271 | 3.0 | 9.0 | 0.00 | 0.00 | 0.00 | 87 | 1014.4 |
| 20260902131605 | 80 | 270 | 5.0 | 9.0 | 0.00 | 0.00 | 0.00 | 87 | 1014.3 |
| 20260902131118 | 79 | 250 | 4.0 | 8.0 | 0.00 | 0.00 | 0.00 | 87 | 1014.3 |
| 20260902130623 | 79 | 273 | 3.0 | 7.0 | 0.00 | 0.00 | 0.00 | 87 | 1014.2 |
| 20260902130050 | 79 | 264 | 4.0 | 7.0 | 0.00 | 0.00 | 0.00 | 87 | 1014.0 |
| 20260902125555 | 79 | 270 | 2.0 | 5.0 | 0.00 | 0.00 | 0.00 | 87 | 1014.0 |
| 20260902124603 | 79 | 268 | 4.0 | 6.0 | 0.00 | 0.00 | 0.00 | 87 | 1013.8 |
| 20260902124108 | 79 | 280 | 2.0 | 4.0 | 0.00 | 0.00 | 0.00 | 87 | 1013.7 |
| 20260902123119 | 79 | 271 | 0.0 | 0.0 | 0.00 | 0.00 | 0.00 | 87 | 1013.5 |
| 20260902122623 | 79 | 271 | 0.0 | 1.0 | 0.00 | 0.00 | 0.00 | 87 | 1013.5 |
| 20260902122134 | 79 | 274 | 0.0 | 0.0 | 0.00 | 0.00 | 0.00 | 87 | 1013.4 |
| 20260902121555 | 79 | 269 | 0.0 | 0.0 | 0.00 | 0.00 | 0.00 | 87 | 1013.3 |
| 20260902121107 | 79 | 271 | 0.0 | 0.0 | 0.00 | 0.00 | 0.00 | 87 | 1013.3 |
| 20260902120607 | 79 | 271 | 0.0 | 0.0 | 0.00 | 0.00 | 0.00 | 87 | 1013.4 |
| 20260902120038 | 79 | 271 | 0.0 | 0.0 | 0.00 | 0.00 | 0.00 | 87 | 1013.4 |
| 20260902115629 | 79 | 271 | 0.0 | 0.0 | 0.00 | 0.00 | 0.00 | 86 | 1013.4 |
| 20260902115133 | 79 | 271 | 0.0 | 0.0 | 0.00 | 0.00 | 0.00 | 86 | 1013.4 |
| 20260902114559 | 79 | 271 | 0.0 | 0.0 | 0.00 | 0.00 | 0.00 | 86 | 1013.3 |
| 20260902114054 | 79 | 271 | 0.0 | 0.0 | 0.00 | 0.00 | 0.00 | 86 | 1013.3 |
| 20260902113115 | 79 | 271 | 0.0 | 0.0 | 0.00 | 0.00 | 0.00 | 86 | 1013.3 |
| 20260902112628 | 79 | 273 | 0.0 | 0.0 | 0.00 | 0.00 | 0.00 | 86 | 1013.2 |
| 20260902112106 | 79 | 274 | 0.0 | 0.0 | 0.00 | 0.00 | 0.00 | 86 | 1013.3 |
| 20260902111538 | 79 | 277 | 0.0 | 0.0 | 0.00 | 0.00 | 0.00 | 85 | 1013.4 |
| 20260902111131 | 79 | 278 | 0.0 | 0.0 | 0.00 | 0.00 | 0.00 | 85 | 1013.4 |
| 20260902110634 | 79 | 278 | 0.0 | 0.0 | 0.00 | 0.00 | 0.00 | 85 | 1013.3 |
| 20260902110040 | 80 | 278 | 0.0 | 0.0 | 0.00 | 0.00 | 0.00 | 85 | 1013.4 |
| 20260902105544 | 80 | 278 | 0.0 | 0.0 | 0.00 | 0.00 | 0.00 | 84 | 1013.4 |
| 20260902105157 | 80 | 278 | 0.0 | 0.0 | 0.00 | 0.00 | 0.00 | 84 | 1013.4 |
| 20260902104604 | 80 | 278 | 0.0 | 0.0 | 0.00 | 0.00 | 0.00 | 84 | 1013.4 |
| 20260902104108 | 80 | 278 | 0.0 | 0.0 | 0.00 | 0.00 | 0.00 | 84 | 1013.4 |
| 20260902103624 | 80 | 278 | 0.0 | 0.0 | 0.00 | 0.00 | 0.00 | 84 | 1013.4 |
| 20260902102546 | 80 | 278 | 0.0 | 0.0 | 0.00 | 0.00 | 0.00 | 84 | 1013.3 |
| 20260902102059 | 80 | 278 | 0.0 | 3.0 | 0.00 | 0.00 | 0.00 | 84 | 1013.3 |
| 20260902101543 | 80 | 279 | 0.0 | 3.0 | 0.00 | 0.00 | 0.00 | 84 | 1013.4 |
| 20260902101055 | 80 | 279 | 0.0 | 0.0 | 0.00 | 0.00 | 0.00 | 84 | 1013.4 |
| 20260902100117 | 80 | 277 | 0.0 | 3.0 | 0.00 | 0.00 | 0.00 | 83 | 1013.3 |
| 20260902095629 | 80 | 279 | 2.0 | 4.0 | 0.00 | 0.00 | 0.00 | 83 | 1013.4 |
| 20260902095113 | 80 | 279 | 3.0 | 5.0 | 0.00 | 0.00 | 0.00 | 83 | 1013.2 |
| 20260902094544 | 81 | 281 | 3.0 | 5.0 | 0.00 | 0.00 | 0.00 | 83 | 1013.1 |
| 20260902094055 | 81 | 271 | 2.0 | 6.0 | 0.00 | 0.00 | 0.00 | 83 | 1013.2 |
| 20260902093600 | 81 | 269 | 2.0 | 4.0 | 0.00 | 0.00 | 0.00 | 83 | 1013.1 |
| 20260902093151 | 81 | 263 | 2.0 | 4.0 | 0.00 | 0.00 | 0.00 | 83 | 1013.1 |
| 20260902092643 | 81 | 261 | 1.0 | 6.0 | 0.00 | 0.00 | 0.00 | 82 | 1013.1 |
| 20260902091639 | 81 | 259 | 2.0 | 4.0 | 0.00 | 0.00 | 0.00 | 82 | 1013.0 |
| 20260902091123 | 81 | 254 | 1.0 | 4.0 | 0.00 | 0.00 | 0.00 | 82 | 1013.1 |
| 20260902090635 | 81 | 246 | 1.0 | 4.0 | 0.00 | 0.00 | 0.00 | 82 | 1013.0 |
| 20260902085545 | 81 | 242 | 1.0 | 3.0 | 0.00 | 0.00 | 0.00 | 81 | 1013.1 |
| 20260902084612 | 81 | 240 | 2.0 | 4.0 | 0.00 | 0.00 | 0.00 | 81 | 1013.0 |
| 20260902084124 | 81 | 238 | 2.0 | 5.0 | 0.00 | 0.00 | 0.00 | 81 | 1012.9 |
| 20260902083102 | 81 | 232 | 2.0 | 5.0 | 0.00 | 0.00 | 0.00 | 81 | 1012.9 |
| 20260902082611 | 81 | 240 | 3.0 | 5.0 | 0.00 | 0.00 | 0.00 | 81 | 1012.9 |
| 20260902082109 | 81 | 235 | 2.0 | 5.0 | 0.00 | 0.00 | 0.00 | 81 | 1013.0 |
| 20260902081540 | 81 | 236 | 2.0 | 4.0 | 0.00 | 0.00 | 0.00 | 81 | 1013.1 |
| 20260902081044 | 81 | 236 | 2.0 | 4.0 | 0.00 | 0.00 | 0.00 | 81 | 1013.0 |
| 20260902080636 | 81 | 236 | 1.0 | 4.0 | 0.00 | 0.00 | 0.00 | 81 | 1013.0 |
| 20260902075547 | 81 | 231 | 2.0 | 4.0 | 0.00 | 0.00 | 0.00 | 80 | 1013.2 |
| 20260902074614 | 81 | 230 | 3.0 | 4.0 | 0.00 | 0.00 | 0.00 | 79 | 1013.2 |
| 20260902074104 | 81 | 229 | 3.0 | 5.0 | 0.00 | 0.00 | 0.00 | 78 | 1013.2 |
| 20260902073103 | 81 | 226 | 2.0 | 4.0 | 0.00 | 0.00 | 0.00 | 77 | 1013.4 |
| 20260902072608 | 81 | 225 | 0.0 | 0.0 | 0.00 | 0.00 | 0.00 | 77 | 1013.4 |
| 20260902071630 | 81 | 207 | 0.0 | 0.0 | 0.00 | 0.00 | 0.00 | 78 | 1013.5 |
| 20260902071135 | 81 | 204 | 0.0 | 3.0 | 0.00 | 0.00 | 0.00 | 78 | 1013.6 |
| 20260902070626 | 81 | 202 | 1.0 | 3.0 | 0.00 | 0.00 | 0.00 | 78 | 1013.5 |
| 20260902070052 | 81 | 200 | 1.0 | 3.0 | 0.00 | 0.00 | 0.00 | 78 | 1013.6 |
| 20260902065540 | 81 | 197 | 0.0 | 3.0 | 0.00 | 0.00 | 0.00 | 79 | 1013.6 |
| 20260902065050 | 81 | 196 | 1.0 | 3.0 | 0.00 | 0.00 | 0.00 | 79 | 1013.7 |
| 20260902064542 | 80 | 145 | 0.0 | 1.0 | 0.00 | 0.00 | 0.00 | 79 | 1013.6 |
| 20260902064052 | 80 | 144 | 0.0 | 0.0 | 0.00 | 0.00 | 0.00 | 79 | 1013.6 |
| 20260902063603 | 80 | 143 | 0.0 | 2.0 | 0.00 | 0.00 | 0.00 | 79 | 1013.6 |
| 20260902063057 | 80 | 142 | 0.0 | 2.0 | 0.00 | 0.00 | 0.00 | 79 | 1013.6 |